ARIANE 2 DEB, 33557

Orbit data source: Space-Track

ARIANE 2 DEB, 33557 is space debris in HEO originally from a launch on Fri, 27 Jan 1989 UTC launched from the French Guiana (FRGUI). Debris objects in space refer to the collection of defunct objects orbiting the Earth. Examples of debris include non-operational satellites, rocket bodies, and fragments generated from explosions, collisions, or faulty payload assembly.

Loading next visibility...
Identifier
33557, 1989-006AZ
Orbit
HEO
Country
Flag of FRFR
Related business
Manufacturer
EADS/LV
Mission
Spacecraft
Bus & Motor
Unknown
Mass
Unknown
Launch date (UTC)
1989-01-27 (37 years ago)
Launch vehicle
Unknown
Launch site
French Guiana (FRGUI)
Object type
Payload
Rocket body
Debris
Shape & HBR
Unknown shape, 0.1 m
Radar Cross Section
Medium (>0.1 m² and <1 m²)

Expand to show TLE details & history
Last TLE update: 9 months ago

TLE from 9 months ago
0 ARIANE 2 DEB
1 33557U 89006AZ  25182.91605887 -.00000103  00000-0  00000+0 0  9992
2 33557   9.9091  16.0291 6956659 196.6665  69.2421  2.23118583170990
Epoch: 2025-07-01T21:59Z
TLE epoch observation values (Epoch: 2025-07-01T21:59:07.486Z)
Latitude
-3.06976°
Longitude
108.25976°
Altitude
23,436.145 km
Speed
3.26 km/s
True Right ascension
23h 52m 58s
True Declination
-3° 03' 55"
Sunlit
Object was in daylight at epoch
Visualization orbit readout
Latitude
Unknown
Longitude
Unknown
Altitude
Unknown
Speed
Unknown
Apparent Right ascension
Unknown
Apparent Declination
Unknown
Sunlit
N/A
Visualization observer readout
Local Sidereal Time
00:42:49
Azimuth
Unknown
Elevation
Unknown
Doppler factor
Unknown
Orbital elements
Apogee altitude
35,578.351 km
Perigee altitude
1,152.114 km
Semi-major axis
24,743.37 km
Eccentricity
0.69567
Inclination
9.9091°
RAAN
16.0291°
Arg. of periapsis
196.6665°
True anomaly
145.36702°
Mean anomaly
69.2421°
Eccentric anomaly
107.29805°
Mean motion
0.55764 °/min
Orbital period
645.58 mins
BSTAR
0
Loading maneuver chart data...
Computing Atmospheric mass density...
Loading historical data...
Loading historical data...
Loading historical data...
Loading historical data...
Loading historical data...
Loading historical data...
Loading historical data...

Documentation

Showing up to 5 results
|